Starlink 35165

operational
NORAD ID: 65750 Int'l Des: 2025-216 Owner: SPXS Country: US Constellation: starlink
NOTLE

Über Starlink 35165

Beschreibung wird geladen...

Live-Position

3D-Globus wird geladen...

Nächste Überflüge

Höhenverlauf

Altitude vs Time

uPlot chart will show altitude changes over time

Zweizeiliger Elementsatz

1 65750U 25216S 25340.47147734 .00040174 00000-0 13606-2 0 9994
2 65750 53.1608 45.7253 0001514 103.4848 256.6322 15.30213030 12246
Epoch: 6. Dez. 2025 • Age: 30 hours

Aktueller Status

Höhe 488.0 km
Geschwindigkeit 7.62 km/s
Subsatellitenpunkt -37.51°S, 35.16°E
Startdatum 25. Sept. 2025
Alter 0.1 years
Typ internet

Technische Details

Klassifizierung Payload
Masse 575.00 kg
Trockenmasse 530.00 kg
Gesamtmasse 575.00 kg
Länge 0.30 m
Durchmesser 4.10 m
Spannweite 29.00 m
Form Box + pan
Hersteller SPXS
Bus-Typ Starlink V2MO
Phasenstatus In Orbit
Besitzer/Staat SPXS/US

Große Konstellationen

Loading constellations...